#timestamp,LO_Frequency,Hit,StdDev 
1512054015.3,286047007.4,P
1512054035.1,286047007.5,N
1512054055.9,286047005.6,N
1512054075.7,286047004.6,N
1512054095.5,286047004.8,N
1512054115.4,286047007.3,N
1512054135.2,286047006.4,N
1512054155.0,286047006.9,N
1512054155.9,286047006.9,N
1512054175.8,286047007.4,Y
1512054195.6,286047002.1,P
1512054215.4,286047005.5,P
1512054235.3,286047004.7,N
1512054255.1,286047003.0,N
1512054256.0,286047003.0,N
1512054275.8,286047007.5,Y
1512054295.7,286047001.5,P
1512054315.5,286047005.5,P
1512054335.3,286047004.6,N
1512054355.2,286047008.9,Y
1512054375.9,286047005.1,P
1512054395.7,286047007.3,P
1512054415.6,286047001.7,N
1512054435.4,286047001.7,N
1512054455.2,286047002.3,N
1512054475.1,286047002.0,N
1512054476.0,286047002.0,N
1512054495.8,286047002.3,N
1512054515.6,286047002.1,N
1512054535.4,286047003.3,N
1512054555.3,286047004.7,N
1512054575.1,286047007.2,Y
1512054595.9,286047004.4,P
1512054615.7,286046999.7,N
1512054635.5,286047005.5,N
1512054655.4,286047007.3,Y
1512054675.2,286047004.4,P
1512054695.0,286047003.0,P
1512054695.9,286047003.0,P
1512054715.8,286047004.5,Y
1512054735.6,286047001.9,P
1512054755.4,286047002.4,P
1512054775.3,286047003.8,P
1512054795.1,286047003.9,Y
1512054796.0,286047003.9,P
1512054815.8,286047000.0,N
1512054835.7,286046997.8,N
1512054855.5,286046996.6,N
1512054875.3,286046999.5,N
1512054895.2,286047002.3,N
1512054915.9,286047002.0,N
1512054935.7,286047003.6,N
1512054955.5,286047004.2,N
1512054975.4,286047001.9,N
1512054995.2,286047003.5,N
1512055015.0,286047001.3,N
1512055015.9,286047001.3,N
1512055035.8,286047001.9,N
1512055055.6,286047000.6,N
1512055075.4,286046996.5,N
1512055095.3,286046999.0,N
1512055115.1,286046999.1,N
1512055116.0,286046999.1,N
1512055135.8,286046998.4,N
1512055155.7,286046999.4,N
1512055175.5,286046999.8,N
1512055195.3,286047000.6,N
1512055215.1,286046995.6,N
1512055235.9,286046994.4,N
1512055255.7,286046992.1,Y
1512055275.5,286046989.1,P
1512055295.4,286046989.1,N
1512055315.2,286046990.1,N
1512055335.0,286046996.0,N
1512055335.9,286046996.0,N
1512055355.8,286046995.4,N
1512055375.6,286046997.5,N
1512055395.4,286046995.3,N
1512055415.3,286046994.9,N
1512055435.1,286046992.5,N
1512055455.8,286046990.3,N
1512055475.7,286046988.5,Y
1512055495.5,286046995.4,P
1512055515.3,286046999.6,N
1512055535.2,286046994.9,N
1512055555.9,286046995.1,N
1512055575.7,286046998.8,N
1512055595.6,286046998.4,N
1512055615.4,286047001.0,N
1512055635.2,286046996.9,N
1512055655.1,286046996.7,N
1512055656.0,286046996.7,N
1512055675.8,286046999.9,N
1512055695.6,286047000.5,N
1512055715.4,286047001.8,N
1512055735.3,286047000.3,N
1512055755.1,286047000.2,N
1512055775.8,286047001.9,N
1512055795.7,286047003.6,N
1512055815.5,286047002.0,N
1512055835.3,286047000.0,N
1512055855.2,286047000.9,N
1512055875.9,286047005.5,N
1512055895.7,286047007.5,N
1512055915.6,286047005.6,N
1512055935.4,286047003.7,N
1512055955.2,286047001.9,N
1512055975.1,286047003.6,N
1512055976.0,286047003.6,N
1512055995.8,286047004.1,N
1512056015.6,286047000.4,N
1512056035.4,286046999.7,N
1512056055.3,286047007.1,N
1512056075.1,286047010.1,Y
1512056095.9,286047005.7,P
1512056115.7,286047003.1,N
1512056135.5,286047005.9,P
1512056155.4,286047007.1,Y
1512056175.2,286047004.1,P
1512056195.0,286047002.9,P
1512056195.9,286047002.9,P
1512056215.8,286047004.4,Y
1512056235.6,286046995.2,P
1512056255.4,286046995.2,N
1512056275.3,286046994.6,N
1512056295.1,286046997.6,N
1512056296.0,286046997.6,N
1512056315.8,286046999.2,N
1512056335.6,286046999.0,N
1512056355.5,286046997.2,N
1512056375.3,286046995.1,N
1512056395.1,286046996.2,N
1512056415.9,286046995.6,N
1512056435.7,286046997.6,N
1512056455.5,286046996.2,N
1512056475.4,286046993.6,N
1512056495.2,286046997.2,N
1512056515.0,286046995.1,N
1512056515.9,286046995.1,N
1512056535.8,286046993.4,N
1512056555.6,286046996.1,N
1512056575.4,286046991.9,Y
1512056595.3,286046993.5,P
1512056615.1,286046991.7,P
1512056616.0,286046991.7,P
1512056635.8,286046992.0,Y
1512056655.7,286046997.7,P
1512056675.5,286047001.2,N
1512056695.3,286046997.0,N
1512056715.2,286046998.9,N
1512056735.9,286046998.5,N
1512056755.7,286047003.7,N
1512056775.6,286047001.4,N
1512056795.4,286047002.1,N
1512056815.2,286046999.9,N
1512056835.0,286047001.2,N
1512056836.0,286047001.2,N
1512056855.8,286046998.7,N
1512056875.6,286046999.2,N
1512056895.4,286046995.8,N
1512056915.3,286046995.9,N
1512056935.1,286046997.6,N
1512056955.8,286046997.9,N
1512056975.7,286046998.0,N
1512056995.5,286046997.6,N
1512057015.3,286047000.5,N
1512057035.2,286047003.4,N
1512057055.9,286047001.7,N
1512057075.7,286047000.9,N
1512057095.6,286046999.3,N
1512057115.4,286046997.2,N
1512057135.2,286046998.5,N
1512057155.0,286047001.1,N
1512057155.9,286047001.1,N
1512057175.8,286047003.4,N
1512057195.6,286047002.8,N
1512057215.4,286047001.4,N
1512057235.3,286047003.7,N
1512057255.1,286047003.2,N
1512057256.0,286047003.2,N
1512057275.8,286047004.1,N
1512057295.7,286047005.0,N
1512057315.5,286047003.8,N
1512057335.3,286046999.7,N
1512057355.2,286046998.6,N
1512057375.9,286047001.0,N
1512057395.7,286047000.9,N
1512057415.6,286046998.2,N
1512057435.4,286047000.3,N
1512057455.2,286047000.6,N
1512057475.0,286047002.2,N
1512057475.9,286047002.2,N
1512057495.8,286047003.9,N
1512057515.6,286047003.8,N
1512057535.4,286047003.1,N
1512057555.3,286047006.5,Y
1512057575.1,286047004.5,P
1512057595.8,286047009.1,P
